This is the latest recevied weather packets stored in our database for station/object W3AJR. If no packets are shown the sender has not sent any weather packets the latest 10 day(s).
| Time | Temp. | Humidity | Pressure | Rain* | Wind** | Luminosity | Snow |
|---|---|---|---|---|---|---|---|
| 1778187498 | 16.11° C | 62% | 1008.2 hPa | 0 mm | - | 413 W/m² | - |
| 1778187195 | 15.56° C | 64% | 1008.6 hPa | 0 mm | - | 439 W/m² | - |
| 1778186891 | 15.56° C | 64% | 1008.6 hPa | 0 mm | - | 404 W/m² | - |
| 1778186588 | 15.56° C | 64% | 1008.7 hPa | 0 mm | - | 440 W/m² | - |
| 1778186287 | 15.56° C | 64% | 1008.7 hPa | 0 mm | - | 478 W/m² | - |
| 1778185984 | 16.11° C | 62% | 1008.7 hPa | 0 mm | - | 481 W/m² | - |
| 1778185680 | 16.11° C | 61% | 1008.8 hPa | 0 mm | - | 468 W/m² | - |
| 1778185376 | 16.67° C | 62% | 1008.8 hPa | 0 mm | - | 507 W/m² | - |
| 1778185071 | 16.11° C | 62% | 1008.7 hPa | 0 mm | - | 557 W/m² | - |
| 1778184767 | 16.11° C | 62% | 1009 hPa | 0 mm | - | 574 W/m² | - |
| 1778184464 | 16.11° C | 64% | 1008.6 hPa | 0 mm | - | 567 W/m² | - |
| 1778184160 | 15.56° C | 64% | 1008.9 hPa | 0 mm | - | 568 W/m² | - |
| 1778183856 | 16.11° C | 64% | 1008.6 hPa | 0 mm | - | 557 W/m² | - |
| 1778183554 | 16.11° C | 62% | 1009.1 hPa | 0 mm | - | 578 W/m² | - |
| 1778183251 | 15.56° C | 63% | 1009 hPa | 0 mm | - | 666 W/m² | - |
| 1778182947 | 14.44° C | 63% | 1009.2 hPa | 0 mm | - | 740 W/m² | - |
| 1778182644 | 15.56° C | 63% | 1009 hPa | 0 mm | - | 711 W/m² | - |
| 1778182340 | 15.56° C | 62% | 1009.3 hPa | 0 mm | - | 425 W/m² | - |
| 1778182037 | 15° C | 62% | 1009.5 hPa | 0 mm | - | 738 W/m² | - |
| 1778181734 | 15° C | 65% | 1009.7 hPa | 0 mm | - | 428 W/m² | - |
| 1778181429 | 14.44° C | 66% | 1009.6 hPa | 0 mm | - | 413 W/m² | - |
| 1778181127 | 14.44° C | 65% | 1009.7 hPa | 0 mm | - | 551 W/m² | - |
| 1778180824 | 13.89° C | 69% | 1009.5 hPa | 0 mm | - | 520 W/m² | - |
| 1778180522 | 13.89° C | 70% | 1009.5 hPa | 0 mm | - | 436 W/m² | - |
| 1778180220 | 13.89° C | 70% | 1009.8 hPa | 0 mm | - | 322 W/m² | - |
* Rain latest hour (hover to see other rain measurements)
** Current wind speed in m/s (hover to see current wind gust speed)